カタログに戻る

FENGYUN 1C DEB

運用中SSO
NORAD 32352·DEBRIS·🇨🇳 China

打ち上げ May 10, 1999 から Taiyuan Satellite Launch Center

Loading…

次のパス (今後24時間)

TLE

最新Source: Space-Track

元期: Sep 12, 2026, 00:39 UTC

1 32352U 99025CYV 26255.02749651  .00000652  00000-0  19596-3 0  9990
2 32352  98.7856 187.8097 0122308  77.4252 284.0583 14.41941401692076

AllMySatでFENGYUN 1C DEBをリアルタイム追跡

Download on the App Store